Вернуться в каталог

COSMOS 2251 DEB

АктивенLEO
NORAD 34056·DEBRIS·🇷🇺 Russia

Запущен Jun 16, 1993 с Plesetsk Cosmodrome

Loading…

Ближайшие Пролёты (ближайшие 24 часа)

TLE

СвежийSource: Space-Track

Эпоха: Sep 14, 2026, 13:43 UTC

1 34056U 93036JT  26257.57203223  .00002180  00000-0  91750-3 0  9991
2 34056  74.0569 302.4043 0127911 283.9493 230.0805 14.22053513903305

Отслеживайте COSMOS 2251 DEB в реальном времени с AllMySat

Download on the App Store